Weather History for Memphis, TN

Change the Weather History Date:

Friday, September 13, 2013

  Actual Average Record
Temperature  
Mean Temperature 76 °F 76 °F  
Max Temperature 85 °F 86 °F 99 °F (1980)
Min Temperature 67 °F 66 °F 43 °F (1940)
Degree Days  
Heating Degree Days 0 0  
Month to date heating degree days 0 0  
Since 1 July heating degree days 0 0  
Cooling Degree Days 11 11  
Month to date cooling degree days 237 172  
Year to date cooling degree days 1963 2007  
Growing Degree Days 27 (Base 50)    
Moisture  
Dew Point 58 °F    
Average Humidity 56    
Maximum Humidity 79    
Minimum Humidity 32    
Precipitation  
Precipitation 0.00 in 0.10 in 1.32 in (1977)
Month to date precipitation 0.11 1.23  
Year to date precipitation 46.06 36.61  
Snow  
Snow 0.00 in 0.00 in - ()
Month to date snowfall 0.0 0.0  
Since 1 July snowfall 0.0 0.0  
Since 1 September snowfall 0.0 0.0  
Snow Depth 0.00 in    
Sea Level Pressure  
Sea Level Pressure 29.98 in    
Wind  
Wind Speed 11 mph (NNE)    
Max Wind Speed 17 mph    
Max Gust Speed 22 mph    
Visibility 10 miles    
Events      
T = Trace of Precipitation, MM = Missing Value Source: NWS Daily Summary

Daily Weather History Graph

Daily Weather History Graph

Search for Another Location

Airport:

Trip Planner

Search our weather history database for the weather conditions in past years. The results will help you decide how hot, cold, wet, or windy it might be!

Date:

Astronomy

Sep. 13, 2013 Rise Set
Actual Time 6:41 AM CDT 7:09 PM CDT
Civil Twilight 6:16 AM CDT 7:34 PM CDT
Nautical Twilight 5:46 AM CDT 8:04 PM CDT
Astronomical Twilight 5:15 AM CDT 8:34 PM CDT
Moon 2:49 PM CDT (9/13) 12:20 AM CDT (9/13)
Length of Visible Light 13h 18m
Length of Day
12h 27m
First Quarter, 61% of the Moon is Illuminated
Sep 13
First Quarter
Sep 19
Full
Sep 26
Last Quarter
Oct 4
New
Oct 11
First Quarter

Hourly Weather History & Observations

Time (CDT) Temp. Heat Index Dew Point Humidity Pressure Visibility Wind Dir Wind Speed Gust Speed Precip Events Conditions
12:54 AM 77.4 °F - 70.0 °F 78% 29.96 in 9.0 mi North 9.2 mph - N/A   Mostly Cloudy
1:54 AM 76.8 °F - 70.0 °F 79% 29.96 in 9.0 mi NNE 9.2 mph - N/A   Partly Cloudy
2:54 AM 76.6 °F - 69.1 °F 77% 29.95 in 9.0 mi NNE 6.9 mph - N/A   Partly Cloudy
3:54 AM 75.7 °F - 67.1 °F 74% 29.95 in 10.0 mi NNE 9.2 mph - N/A   Scattered Clouds
4:54 AM 74.7 °F - 64.6 °F 71% 29.96 in 10.0 mi NNE 11.5 mph - N/A   Mostly Cloudy
5:54 AM 73.4 °F - 62.1 °F 68% 29.97 in 10.0 mi NNE 11.5 mph - N/A   Mostly Cloudy
6:54 AM 72.1 °F - 58.6 °F 62% 29.99 in 10.0 mi NE 9.2 mph - N/A   Mostly Cloudy
7:54 AM 71.2 °F - 57.0 °F 61% 30.00 in 10.0 mi ENE 11.5 mph - N/A   Mostly Cloudy
8:54 AM 72.0 °F - 56.7 °F 58% 30.00 in 10.0 mi NE 11.5 mph - N/A   Mostly Cloudy
9:54 AM 76.8 °F - 59.5 °F 55% 30.01 in 10.0 mi NNE 9.2 mph - N/A   Mostly Cloudy
10:54 AM 79.5 °F - 57.2 °F 46% 30.02 in 10.0 mi NNE 11.5 mph - N/A   Mostly Cloudy
11:54 AM 81.0 °F 80.8 °F 55.9 °F 42% 30.01 in 10.0 mi NNE 6.9 mph - N/A   Mostly Cloudy
12:54 PM 82.9 °F 81.9 °F 54.0 °F 37% 30.00 in 10.0 mi NNE 8.1 mph - N/A   Mostly Cloudy
1:54 PM 82.9 °F 81.9 °F 54.0 °F 37% 29.97 in 10.0 mi NE 9.2 mph 16.1 mph N/A   Mostly Cloudy
2:54 PM 84.0 °F - 52.0 °F 33% 29.96 in 10.0 mi NE 11.5 mph 18.4 mph N/A   Mostly Cloudy
3:54 PM 82.9 °F - 52.0 °F 34% 29.94 in 10.0 mi NNE 13.8 mph - N/A   Mostly Cloudy
4:54 PM 80.1 °F - 51.1 °F 36% 29.94 in 10.0 mi NNE 13.8 mph 21.9 mph N/A   Mostly Cloudy
5:54 PM 77.0 °F - 52.0 °F 42% 29.95 in 10.0 mi NNE 12.7 mph - N/A   Mostly Cloudy
6:54 PM 75.9 °F - 52.0 °F 43% 29.96 in 10.0 mi NNE 12.7 mph - N/A   Scattered Clouds
7:54 PM 73.9 °F - 52.0 °F 46% 29.97 in 10.0 mi NNE 11.5 mph - N/A   Scattered Clouds
8:54 PM 72.0 °F - 53.1 °F 51% 30.00 in 10.0 mi NNE 9.2 mph - N/A   Scattered Clouds
9:54 PM 71.1 °F - 53.1 °F 53% 30.01 in 10.0 mi NE 9.2 mph - N/A   Scattered Clouds
10:54 PM 70.0 °F - 53.1 °F 55% 30.01 in 10.0 mi NE 13.8 mph - N/A   Partly Cloudy
11:54 PM 69.1 °F - 52.0 °F 54% 30.01 in 10.0 mi NE 11.5 mph - N/A   Partly Cloudy